Showing default

SNUSAT-2, 43782

Orbit data source: Space-Track

SNUSAT-2, 43782 is a payload satellite owned by SNU (KR) in SSO that was launched on Mon, 03 Dec 2018 UTC via an FALCON 9 launch vehicle from the Air Force Western Test Range (AFWTR). Payload-class satellites include a variety of spacecraft equipped with specific instruments for various scientific and technological missions. These include communications satellites like Starlink; space stations such as the ISS; scientific satellites like the Hubble; Earth observation satellites from companies like Planet Labs, Umbra, and HawkEye 360; GPS; miniature CubeSats for education and research; and military/defense satellites.

Loading next visibility...
Identifier
43782, 2018-099AA
Orbit
SSO
Country
Flag of UnknownUnknown / SKOR
Related business
Manufacturer
SNU
Mission
Operational Amateur Technology
Bus & Motor
CUBESAT 3U, Unknown motor
Mass
4 kg wet, 4 kg dry
Launch date (UTC)
2018-12-03 (7 years ago)
Launch vehicle
FALCON 9
Launch site
Air Force Western Test Range (AFWTR)
Object type
Payload
Rocket body
Debris
Shape & HBR
Box, 0.1 m
Radar Cross Section
0.035 m², Small (<0.1 m²)

Expand to show TLE details & history
Last TLE update: 9 hours ago

TLE from 9 hours ago
0 SNUSAT-2
1 43782U 18099AA  26034.56193774  .00011301  00000-0  53469-3 0  9994
2 43782  97.4262  90.0820 0011765  49.3772 310.8484 15.19467797392724
Epoch: 2026-02-03T13:29Z
TLE epoch observation values (Epoch: 2026-02-03T13:29:11.420Z)
Latitude
-0.00005°
Longitude
114.04333°
Altitude
505.243 km
Speed
7.614 km/s
True Right ascension
06h 00m 19s
True Declination
0° 00' 00"
Sunlit
Object was in full shadow at epoch
Visualization orbit readout
Latitude
Unknown
Longitude
Unknown
Altitude
Unknown
Speed
Unknown
Apparent Right ascension
Unknown
Apparent Declination
Unknown
Sunlit
N/A
Visualization observer readout
Local Sidereal Time
00:41:21
Azimuth
Unknown
Elevation
Unknown
Doppler factor
Unknown
Orbital elements
Apogee altitude
512.513 km
Perigee altitude
496.318 km
Semi-major axis
6,882.552 km
Eccentricity
0.00118
Inclination
97.4262°
RAAN
90.082°
Arg. of periapsis
49.3772°
True anomaly
310.74632°
Mean anomaly
310.8484°
Eccentric anomaly
310.79737°
Mean motion
3.80118 °/min
Orbital period
94.71 mins
BSTAR
0.00053469
Loading maneuver chart data...
Computing Atmospheric mass density...

Documentation

Showing up to 5 results
|